Abilene Dyess, TX

10:58 PM CST on January 21, 2018 (GMT -0600)
Dyess Air Force Base

Weather History for KDYS - October, 2012

Change the Weather History Date:

Saturday, October 6, 2012

  Actual Average Record
Temperature  
Mean Temperature 50 °F -  
Max Temperature 55 °F 79 °F 93 °F (1999)
Min Temperature 44 °F 59 °F 44 °F (2005)
Degree Days  
Heating Degree Days 16    
Moisture  
Dew Point 41 °F    
Average Humidity 71    
Maximum Humidity 82    
Minimum Humidity 57    
Precipitation  
Precipitation 0.00 in - - ()
Sea Level Pressure  
Sea Level Pressure 30.15 in    
Wind  
Wind Speed 12 mph (NNE)    
Max Wind Speed 18 mph    
Max Gust Speed 21 mph    
Visibility 10 miles    
Events      
Averages and records for this station are not official NWS values.
T = Trace of Precipitation, MM = Missing Value Source: NWS Daily Summary

Daily Weather History Graph

Daily Weather History Graph

Search for Another Location

Airport or City:

Trip Planner

Search our weather history database for the weather conditions in past years. The results will help you decide how hot, cold, wet, or windy it might be!

Date:

Astronomy

Oct. 06, 2012 Rise Set
Actual Time 7:37 AM CDT 7:17 PM CDT
Civil Twilight 7:12 AM CDT 7:41 PM CDT
Nautical Twilight 6:44 AM CDT 8:09 PM CDT
Astronomical Twilight 6:15 AM CDT 8:38 PM CDT
Moon 11:48 PM CDT (10/6) 1:17 PM CDT (10/6)
Length of Visible Light 12h 28m
Length of Day
11h 39m
Waning Gibbous, 65% of the Moon is Illuminated
Oct 6
Waning Gibbous
Oct 8
Last Quarter
Oct 15
New
Oct 21
First Quarter
Oct 29
Full

Hourly Weather History & Observations

Time (CDT) Temp. Windchill Dew Point Humidity Pressure Visibility Wind Dir Wind Speed Gust Speed Precip Events Conditions
12:22 AM 55.4 °F - 50.0 °F 82% 30.09 in 10.0 mi NE 9.2 mph - N/A   Mostly Cloudy
12:36 AM 55.4 °F - 50.0 °F 82% 30.09 in 10.0 mi NE 10.4 mph - N/A   Mostly Cloudy
12:55 AM 55.6 °F - 49.5 °F 80% 30.10 in 10.0 mi NE 12.7 mph - N/A   Overcast
1:21 AM 55.4 °F - 48.2 °F 77% 30.09 in 10.0 mi NE 11.5 mph - N/A   Overcast
1:55 AM 55.2 °F - 48.7 °F 79% 30.10 in 10.0 mi NE 11.5 mph - N/A   Overcast
2:55 AM 54.1 °F - 47.7 °F 79% 30.11 in 10.0 mi NNE 11.5 mph - N/A   Overcast
3:28 AM 53.6 °F - 46.4 °F 77% 30.10 in 10.0 mi NE 15.0 mph - N/A   Overcast
3:30 AM 53.6 °F - 46.4 °F 77% 30.10 in 10.0 mi NE 12.7 mph - N/A   Overcast
3:42 AM 53.6 °F - 46.4 °F 77% 30.10 in 10.0 mi NE 13.8 mph - N/A   Overcast
3:54 AM 53.6 °F - 46.4 °F 77% 30.10 in 10.0 mi NE 9.2 mph - N/A   Overcast
3:55 AM 53.4 °F - 46.4 °F 77% 30.10 in 10.0 mi NE 8.1 mph - N/A   Overcast
4:55 AM 52.3 °F - 45.1 °F 76% 30.10 in 10.0 mi NNE 15.0 mph - N/A   Overcast
5:15 AM 51.8 °F - 44.6 °F 76% 30.10 in 10.0 mi NE 15.0 mph - N/A   Overcast
5:17 AM 51.8 °F - 44.6 °F 76% 30.10 in 10.0 mi NNE 15.0 mph - N/A   Overcast
5:55 AM 50.9 °F - 43.5 °F 76% 30.12 in 10.0 mi NE 12.7 mph - N/A   Overcast
6:55 AM 49.8 °F - 42.1 °F 75% 30.12 in 10.0 mi NNE 10.4 mph - N/A   Overcast
7:55 AM 49.3 °F - 41.7 °F 75% 30.14 in 10.0 mi NNE 11.5 mph - N/A   Overcast
8:12 AM 48.2 °F - 41.0 °F 76% 30.14 in 10.0 mi NNE 10.4 mph - N/A   Overcast
8:26 AM 48.2 °F - 41.0 °F 76% 30.15 in 10.0 mi NNE 13.8 mph - N/A   Overcast
8:36 AM 48.2 °F - 41.0 °F 76% 30.15 in 10.0 mi NE 12.7 mph - N/A   Overcast
8:39 AM 48.2 °F - 41.0 °F 76% 30.15 in 10.0 mi NNE 11.5 mph - N/A   Overcast
8:55 AM 48.4 °F - 40.8 °F 75% 30.16 in 10.0 mi NNE 10.4 mph - N/A   Overcast
9:00 AM 48.2 °F - 41.0 °F 76% 30.16 in 10.0 mi NNE 15.0 mph - N/A   Overcast
9:55 AM 48.2 °F - 40.3 °F 74% 30.19 in 10.0 mi NNE 12.7 mph - N/A   Overcast
10:55 AM 48.9 °F - 38.3 °F 67% 30.20 in 10.0 mi NNE 13.8 mph - N/A   Overcast
11:08 AM 48.2 °F - 37.4 °F 66% 30.20 in 10.0 mi NE 10.4 mph - N/A   Overcast
11:55 AM 50.4 °F - 36.7 °F 59% 30.19 in 10.0 mi NE 10.4 mph - N/A   Overcast
12:55 PM 50.5 °F - 36.9 °F 59% 30.17 in 10.0 mi North 11.5 mph - N/A   Overcast
1:46 PM 51.8 °F - 37.4 °F 58% 30.16 in 10.0 mi NE 10.4 mph - N/A   Mostly Cloudy
1:55 PM 51.6 °F - 37.9 °F 60% 30.15 in 10.0 mi NE 11.5 mph - N/A   Mostly Cloudy
2:52 PM 53.6 °F - 39.2 °F 58% 30.14 in 10.0 mi NNE 11.5 mph - N/A   Overcast
2:55 PM 53.1 °F - 39.0 °F 59% 30.14 in 10.0 mi NNE 9.2 mph - N/A   Overcast
3:35 PM 53.6 °F - 39.2 °F 58% 30.13 in 10.0 mi North 12.7 mph - N/A   Overcast
3:55 PM 53.2 °F - 38.5 °F 57% 30.13 in 10.0 mi NE 12.7 mph - N/A   Overcast
4:55 PM 51.4 °F - 37.4 °F 59% 30.14 in 10.0 mi North 17.3 mph - N/A   Overcast
5:55 PM 50.0 °F - 36.9 °F 61% 30.15 in 10.0 mi NE 13.8 mph - N/A   Overcast
6:51 PM 48.2 °F - 37.4 °F 66% 30.16 in 10.0 mi NNE 16.1 mph - N/A   Overcast
6:55 PM 48.7 °F - 36.9 °F 64% 30.16 in 10.0 mi NNE 17.3 mph 20.7 mph N/A   Overcast
7:55 PM 46.4 °F 40.1 °F 37.4 °F 71% 30.20 in 10.0 mi NNE 15.0 mph - N/A   Overcast
8:02 PM 46.4 °F 40.1 °F 37.4 °F 71% 30.20 in 10.0 mi NNE 15.0 mph - N/A   Overcast
8:55 PM 45.7 °F 38.8 °F 37.6 °F 73% 30.23 in 10.0 mi NNE 16.1 mph - N/A   Overcast
9:55 PM 45.1 °F 39.1 °F 35.8 °F 70% 30.26 in 10.0 mi NNE 12.7 mph 20.7 mph N/A   Overcast
10:17 PM 44.6 °F 36.9 °F 33.8 °F 66% 30.27 in 10.0 mi NE 18.4 mph - N/A   Overcast
10:55 PM 45.7 °F 39.1 °F 33.8 °F 63% 30.27 in 10.0 mi NNE 15.0 mph - N/A   Overcast
11:55 PM 45.5 °F 39.6 °F 34.9 °F 66% 30.27 in 10.0 mi NE 12.7 mph - N/A   Overcast